Weather in Muzikovka

Ukraine / Kherson District     46°44′52″N   32°34′09″E
temp.,
°C
wind,
m/s
gust,
m/s
humid.,
%
clouds,
%
prec.,
mm/h
press.,
hPa
HPBL,
m
12 may, wed
wed1200:00+10ene35800 0.0 1015106
03:00+8ne35789 0.0 1014101
06:00+7ne48875 0.0 1014211
09:00+11ne45665 0.0 1014784
12:00+13nne4453100 0.0 10131548
15:00+15ne234678 0.0 10131706
18:00+14nne335790 0.0 1012378
21:00+10ne22665 0.0 101231
13 may, thu
thu1300:00+9e1172100 0.0 101314
03:00+9e227014 0.0 101238
06:00+9e337548 0.0 101257
09:00+14ese456199 0.0 1012544
12:00+19se4550100 0.0 10111231
15:00+21sse4548100 0.0 10101566
18:00+21ese5550100 0.0 10101245
21:00+15se3671100 0.0 1010131
14 may, fri
fri1400:00+13sse3588100 0.0 100994
03:00+11s347834 0.0 100983
06:00+11s348813 0.0 100975
09:00+16s4565100 0.0 1010470
12:00+22ssw5648100 0.0 10101003
15:00+22sw6851100 0.0 10101102
18:00+20ssw5660100 0.0 1010650
21:00+15ssw467933 0.0 1011116
15 may, sat
sat1500:00+14ssw36815 0.0 1011120
03:00+13sw369168 0.0 1012107
06:00+13sw3492100 0.0 101296
09:00+18w237168 0.0 1013354
12:00+22ssw44524 0.0 10131040
15:00+24sw4441100 0.0 10121788
18:00+22w3351100 0.0 1012567
21:00+16wnw1169100 0.0 101223
16 may, sun
sun1600:00+15ne2269100 0.0 101119
03:00+15ene3471100 0.0 101152
06:00+15ene4876100 0.0 1010165
09:00+20ene6961100 0.0 1010527
12:00+25ene784560 0.0 10091364
15:00+27ene783876 0.0 10071929
18:00+26ne6951100 0.0 1005696
21:00+19nne4118122 2.1 1005222